Météo par heure à Kyzyl

Ce jour, 25 Juillet, Dimanche

Heure Température Précipitation Vent Pression Humidité
00:00 +19°C° 0 mm 1 m/s 694 mmHg 82%
01:00 +19°C° 0 mm 1 m/s 694 mmHg 83%
02:00 +19°C° 0 mm 1 m/s 694 mmHg 84%
03:00 +18°C° 0 mm 1 m/s 694 mmHg 85%
04:00 +19°C° 0 mm 1 m/s 694 mmHg 82%
05:00 +20°C° 0 mm 1 m/s 695 mmHg 78%
06:00 +19°C° 0 mm 0 m/s 695 mmHg 74%
07:00 +22°C° 0 mm 1 m/s 695 mmHg 70%
08:00 +23°C° 0 mm 1 m/s 695 mmHg 66%
09:00 +24°C° 0 mm 1 m/s 695 mmHg 61%
10:00 +24°C° 0.1 mm 1 m/s 695 mmHg 62%
11:00 +24°C° 0.1 mm 1 m/s 695 mmHg 63%
12:00 +24°C° 0.1 mm 1 m/s 695 mmHg 63%
13:00 +25°C° 0 mm 1 m/s 695 mmHg 59%
14:00 +26°C° 0 mm 1 m/s 695 mmHg 56%
15:00 +27°C° 0 mm 1 m/s 694 mmHg 52%
16:00 +27°C° 0 mm 1 m/s 694 mmHg 50%
17:00 +27°C° 0 mm 1 m/s 694 mmHg 49%
18:00 +27°C° 0 mm 1 m/s 694 mmHg 48%
19:00 +26°C° 0 mm 1 m/s 694 mmHg 55%
20:00 +24°C° 0 mm 2 m/s 694 mmHg 61%
21:00 +23°C° 0 mm 2 m/s 694 mmHg 68%
22:00 +21°C° 0.3 mm 2 m/s 694 mmHg 72%
23:00 +21°C° 0.3 mm 1 m/s 694 mmHg 75%

Demain, 26 Juillet, Lundi

Heure Température Précipitation Vent Pression Humidité
00:00 +21°C° 0.3 mm 1 m/s 694 mmHg 79%
01:00 +21°C° 0 mm 1 m/s 694 mmHg 79%
02:00 +21°C° 0 mm 1 m/s 693 mmHg 79%
03:00 +19°C° 0 mm 0 m/s 693 mmHg 79%
04:00 +19°C° 0.2 mm 0 m/s 693 mmHg 78%
05:00 +19°C° 0.2 mm 0 m/s 694 mmHg 78%
06:00 +19°C° 0.2 mm 0 m/s 694 mmHg 77%
07:00 +20°C° 0.1 mm 0 m/s 694 mmHg 75%
08:00 +20°C° 0.1 mm 0 m/s 694 mmHg 73%
09:00 +21°C° 0.1 mm 0 m/s 694 mmHg 70%
10:00 +24°C° 0.1 mm 1 m/s 693 mmHg 63%
11:00 +26°C° 0.1 mm 1 m/s 693 mmHg 56%
12:00 +28°C° 0.1 mm 1 m/s 693 mmHg 49%
13:00 +28°C° 0.1 mm 1 m/s 693 mmHg 46%
14:00 +29°C° 0.1 mm 2 m/s 692 mmHg 42%
15:00 +30°C° 0.1 mm 2 m/s 692 mmHg 39%
16:00 +29°C° 0.1 mm 3 m/s 692 mmHg 46%
17:00 +27°C° 0.1 mm 3 m/s 692 mmHg 54%
18:00 +26°C° 0.1 mm 4 m/s 692 mmHg 61%
19:00 +24°C° 0.1 mm 3 m/s 692 mmHg 66%
20:00 +23°C° 0.1 mm 2 m/s 692 mmHg 72%
21:00 +21°C° 0.1 mm 2 m/s 692 mmHg 77%
22:00 +21°C° 0.1 mm 1 m/s 692 mmHg 78%
23:00 +21°C° 0.1 mm 1 m/s 692 mmHg 78%

Après-demain, 27 Juillet, Mardi

Heure Température Précipitation Vent Pression Humidité
00:00 +21°C° 0.1 mm 1 m/s 692 mmHg 79%
01:00 +20°C° 0.1 mm 1 m/s 692 mmHg 82%
02:00 +20°C° 0.1 mm 1 m/s 692 mmHg 84%
03:00 +19°C° 0.1 mm 1 m/s 692 mmHg 87%
04:00 +18°C° 0 mm 0 m/s 692 mmHg 83%
05:00 +19°C° 0 mm 0 m/s 692 mmHg 79%
06:00 +20°C° 0 mm 0 m/s 693 mmHg 75%
07:00 +21°C° 0.1 mm 0 m/s 693 mmHg 69%
08:00 +22°C° 0.1 mm 0 m/s 693 mmHg 63%
09:00 +24°C° 0.1 mm 0 m/s 693 mmHg 57%
10:00 +27°C° 0.1 mm 1 m/s 692 mmHg 50%
11:00 +29°C° 0.1 mm 1 m/s 692 mmHg 44%
12:00 +30°C° 0.1 mm 1 m/s 692 mmHg 38%
13:00 +30°C° 0 mm 2 m/s 692 mmHg 37%
14:00 +30°C° 0 mm 3 m/s 691 mmHg 36%
15:00 +30°C° 0 mm 3 m/s 691 mmHg 36%
16:00 +30°C° 0.1 mm 4 m/s 691 mmHg 38%
17:00 +29°C° 0.1 mm 4 m/s 691 mmHg 40%
18:00 +28°C° 0.1 mm 4 m/s 691 mmHg 43%
19:00 +26°C° 0.1 mm 4 m/s 691 mmHg 52%
20:00 +24°C° 0.1 mm 3 m/s 691 mmHg 61%
21:00 +21°C° 0.1 mm 3 m/s 691 mmHg 70%
22:00 +20°C° 0.3 mm 3 m/s 691 mmHg 73%
23:00 +19°C° 0.3 mm 2 m/s 691 mmHg 76%

28 Juillet, Mercredi

Heure Température Précipitation Vent Pression Humidité
00:00 +19°C° 0.3 mm 2 m/s 692 mmHg 80%
01:00 +18°C° 0.3 mm 2 m/s 692 mmHg 81%
02:00 +18°C° 0.3 mm 2 m/s 692 mmHg 83%
03:00 +18°C° 0.3 mm 2 m/s 692 mmHg 85%
04:00 +18°C° 0.3 mm 2 m/s 692 mmHg 84%
05:00 +18°C° 0.3 mm 2 m/s 692 mmHg 84%
06:00 +18°C° 0.3 mm 2 m/s 692 mmHg 83%
07:00 +18°C° 0.1 mm 2 m/s 692 mmHg 81%
08:00 +18°C° 0.1 mm 3 m/s 692 mmHg 78%
09:00 +19°C° 0.1 mm 3 m/s 693 mmHg 76%
10:00 +19°C° 0 mm 4 m/s 693 mmHg 71%
11:00 +20°C° 0 mm 4 m/s 693 mmHg 67%
12:00 +20°C° 0 mm 5 m/s 693 mmHg 63%
13:00 +21°C° 0.1 mm 5 m/s 693 mmHg 59%
14:00 +21°C° 0.1 mm 5 m/s 693 mmHg 56%
15:00 +22°C° 0.1 mm 6 m/s 693 mmHg 53%
16:00 +21°C° 0 mm 6 m/s 694 mmHg 52%
17:00 +20°C° 0 mm 6 m/s 694 mmHg 52%
18:00 +20°C° 0 mm 6 m/s 694 mmHg 51%
19:00 +17°C° 0 mm 5 m/s 694 mmHg 58%
20:00 +15°C° 0 mm 4 m/s 694 mmHg 64%
21:00 +14°C° 0 mm 3 m/s 694 mmHg 71%
22:00 +13°C° 0 mm 3 m/s 695 mmHg 73%
23:00 +12°C° 0 mm 3 m/s 695 mmHg 75%

29 Juillet, Jeudi

Heure Température Précipitation Vent Pression Humidité
00:00 +12°C° 0 mm 2 m/s 695 mmHg 77%
01:00 +12°C° 0 mm 2 m/s 695 mmHg 79%
02:00 +12°C° 0 mm 2 m/s 695 mmHg 80%
03:00 +10°C° 0 mm 2 m/s 695 mmHg 81%
04:00 +12°C° 0 mm 2 m/s 696 mmHg 76%
05:00 +13°C° 0 mm 1 m/s 696 mmHg 71%
06:00 +14°C° 0 mm 1 m/s 696 mmHg 66%
07:00 +16°C° 0 mm 1 m/s 697 mmHg 59%
08:00 +19°C° 0 mm 1 m/s 697 mmHg 52%
09:00 +20°C° 0 mm 1 m/s 697 mmHg 45%
10:00 +22°C° 0 mm 1 m/s 696 mmHg 40%
11:00 +23°C° 0 mm 1 m/s 696 mmHg 35%
12:00 +25°C° 0 mm 2 m/s 696 mmHg 30%
13:00 +25°C° 0 mm 2 m/s 696 mmHg 28%
14:00 +26°C° 0 mm 3 m/s 696 mmHg 27%
15:00 +26°C° 0 mm 4 m/s 696 mmHg 25%
16:00 +26°C° 0 mm 4 m/s 695 mmHg 26%
17:00 +26°C° 0 mm 4 m/s 695 mmHg 27%
18:00 +25°C° 0 mm 4 m/s 695 mmHg 29%
19:00 +22°C° 0 mm 3 m/s 695 mmHg 35%
20:00 +20°C° 0 mm 3 m/s 695 mmHg 41%
21:00 +17°C° 0 mm 3 m/s 695 mmHg 48%
22:00 +17°C° 0 mm 3 m/s 695 mmHg 50%
23:00 +16°C° 0 mm 2 m/s 695 mmHg 53%

30 Juillet, Vendredi

Heure Température Précipitation Vent Pression Humidité
00:00 +15°C° 0 mm 2 m/s 695 mmHg 56%
01:00 +14°C° 0 mm 2 m/s 695 mmHg 57%
02:00 +14°C° 0 mm 2 m/s 695 mmHg 59%
03:00 +13°C° 0 mm 2 m/s 695 mmHg 61%
04:00 +14°C° 0 mm 2 m/s 696 mmHg 57%
05:00 +15°C° 0 mm 1 m/s 696 mmHg 54%
06:00 +16°C° 0 mm 1 m/s 696 mmHg 51%
07:00 +18°C° 0 mm 1 m/s 696 mmHg 48%
08:00 +20°C° 0 mm 1 m/s 696 mmHg 45%
09:00 +21°C° 0 mm 1 m/s 696 mmHg 41%
10:00 +22°C° 0 mm 1 m/s 696 mmHg 38%
11:00 +24°C° 0 mm 1 m/s 696 mmHg 34%
12:00 +25°C° 0 mm 1 m/s 696 mmHg 31%
13:00 +26°C° 0 mm 1 m/s 696 mmHg 30%
14:00 +27°C° 0 mm 1 m/s 695 mmHg 29%
15:00 +27°C° 0 mm 1 m/s 695 mmHg 28%
16:00 +27°C° 0 mm 2 m/s 695 mmHg 29%
17:00 +27°C° 0 mm 2 m/s 695 mmHg 31%
18:00 +26°C° 0 mm 3 m/s 695 mmHg 32%
19:00 +25°C° 0 mm 3 m/s 695 mmHg 38%
20:00 +22°C° 0 mm 3 m/s 695 mmHg 44%
21:00 +20°C° 0 mm 3 m/s 695 mmHg 50%
22:00 +19°C° 0 mm 3 m/s 695 mmHg 54%
23:00 +18°C° 0 mm 3 m/s 695 mmHg 57%
Voir plus

Nous avons besoin de votre consentement

Meteoprog et ses fournisseurs de services peuvent stocker et accéder à des données personnelles telles que des cookies, des identifiants d'appareils ou d'autres technologies similaires sur votre appareil et traiter ces données pour personnaliser le contenu et les publicités, ainsi que pour fournir des fonctionnalités de médias sociaux et analyser le trafic.

  • Stocker et/ou accéder à des informations sur votre appareil

    Des cookies, des identifiants d'appareils ou d'autres informations peuvent être stockés ou accessibles sur votre appareil aux fins indiquées ci-dessus.

  • Annonces et contenus personnalisés, mesure des annonces et des contenus, connaissance de l'audience et développement de produits

    Les annonces et le contenu peuvent être personnalisés en fonction d'un profil. D'autres données peuvent être ajoutées pour mieux personnaliser les annonces et le contenu. Les performances des publicités et du contenu peuvent être mesurées. Il est possible d'obtenir des informations sur le public qui a vu les publicités et le contenu. Ces données peuvent être utilisées pour développer ou améliorer l'expérience de l'utilisateur, les systèmes et les logiciels.

En cliquant sur "J'accepte", vous autorisez l'utilisation de cookies, des identifiants d'appareils, des balises web ou d'autres technologies similaires. Vos paramètres peuvent être modifiés dans le navigateur de votre appareil.

Dans certains cas, des intérêts légitimes peuvent être invoqués plutôt qu'un consentement. Vous pouvez en savoir plus à ce sujet dans notre Politique de confidentialité et de cookies.